This is the latest recevied weather packets stored in our database for station/object W1HVD. If no packets are shown the sender has not sent any weather packets the latest 10 day(s).
| Time | Temp. | Humidity | Pressure | Rain* | Wind** | Luminosity | Snow |
|---|---|---|---|---|---|---|---|
| 1778198820 | 13.33° C | 42% | 1006.4 hPa | 0 mm | - | 0 W/m² | - |
| 1778198517 | 13.33° C | 42% | 1006.4 hPa | 0 mm | - | 1 W/m² | - |
| 1778198213 | 13.89° C | 41% | 1006.4 hPa | 0 mm | - | 1 W/m² | - |
| 1778197911 | 13.89° C | 40% | 1006.3 hPa | 0 mm | - | 2 W/m² | - |
| 1778197608 | 13.89° C | 39% | 1006.3 hPa | 0 mm | - | 4 W/m² | - |
| 1778197304 | 13.89° C | 39% | 1006.3 hPa | 0 mm | - | 6 W/m² | - |
| 1778197001 | 14.44° C | 39% | 1006.2 hPa | 0 mm | - | 8 W/m² | - |
| 1778196700 | 14.44° C | 41% | 1006 hPa | 0 mm | - | 10 W/m² | - |
| 1778196396 | 14.44° C | 39% | 1006.1 hPa | 0 mm | - | 13 W/m² | - |
| 1778196093 | 15° C | 35% | 1005.9 hPa | 0 mm | - | 15 W/m² | - |
| 1778195789 | 15° C | 41% | 1005.9 hPa | 0 mm | - | 17 W/m² | - |
| 1778195487 | 15° C | 37% | 1006 hPa | 0 mm | - | 19 W/m² | - |
| 1778195183 | 15° C | 35% | 1006 hPa | 0 mm | - | 21 W/m² | - |
| 1778194880 | 15.56° C | 39% | 1005.7 hPa | 0 mm | - | 23 W/m² | - |
| 1778194575 | 15.56° C | 36% | 1005.7 hPa | 0 mm | - | 24 W/m² | - |
| 1778194272 | 15.56° C | 34% | 1005.7 hPa | 0 mm | - | 26 W/m² | - |
| 1778193967 | 15.56° C | 38% | 1005.5 hPa | 0 mm | - | 28 W/m² | - |
| 1778193664 | 15.56° C | 35% | 1005.7 hPa | 0 mm | - | 29 W/m² | - |
| 1778193360 | 16.11° C | 37% | 1005.7 hPa | 0 mm | - | 30 W/m² | - |
| 1778193057 | 16.11° C | 32% | 1005.7 hPa | 0 mm | - | 32 W/m² | - |
| 1778192754 | 16.67° C | 35% | 1005.7 hPa | 0 mm | - | 33 W/m² | - |
| 1778192450 | 16.67° C | 36% | 1005.4 hPa | 0 mm | - | 35 W/m² | - |
| 1778192147 | 17.78° C | 36% | 1005.3 hPa | 0 mm | - | 48 W/m² | - |
| 1778191844 | 17.22° C | 36% | 1005.4 hPa | 0 mm | - | 103 W/m² | - |
| 1778191541 | 17.78° C | 35% | 1005.4 hPa | 0 mm | - | 112 W/m² | - |
* Rain latest hour (hover to see other rain measurements)
** Current wind speed in m/s (hover to see current wind gust speed)